Regional Weather Roundup
Issued by NWS Charleston, SC

Current Version | Previous Version | Text Only | Print | Product List | Glossary Off
Versions: 1 2 3 4 5 6 7 8 9 10 11 12 13 14 15 16 17 18 19 20 21 22 23 24 25 26 27 28 29 30 31 32 33 34 35 36 37 38 39 40 41 42 43 44 45 46 47 48 49 50

000
ASUS42 KCHS 251112
RWRCHS

REGIONAL WEATHER ROUNDUP
NATIONAL WEATHER SERVICE CHARLESTON SC
700 AM EDT TUE APR 25 2017

NOTE: "FAIR" INDICATES FEW OR NO CLOUDS BELOW 12,000 FEET WITH NO
SIGNIFICANT WEATHER AND/OR OBSTRUCTIONS TO VISIBILITY.

NOT ALL STATIONS ARE QUALITY CONTROLLED. USE DATA WITH CAUTION...
ESPECIALLY DEWPOINT OBSERVATIONS.

SCZ027-030-031-034>040-042>050-251200-
...SOUTHEAST SOUTH CAROLINA...

CITY           SKY/WX    TMP DP  RH WIND       PRES   REMARKS
N CHARLESTON   CLOUDY    59  56  89 W9        29.65R
WATERFRONT PRK   N/A     60  59  96 VRB3      29.63R
JOHNS ISLAND   CLOUDY   N/A N/A N/A MISG        N/A  FOG
PINOPOLIS        N/A     59  57  94 W12       29.53S
MONCKS CORNER  CLOUDY    57  55  94 SW3       29.64R
SUMMERVILLE    CLOUDY    57  55  94 W9        29.67R
BEAUFORT MCAS  CLOUDY    59  58  96 W12       29.69R
BEAUFORT ARPT  CLOUDY    59  55  88 W14G20    29.68R
HILTON HEAD IS CLOUDY    59  57  94 NW12G18   29.68R
WALTERBORO     CLOUDY    55  55 100 W7        29.68R FOG
ALLENDALE      CLOUDY    57  55  94 VRB7      29.68R FOG

...SOUTHERN MIDLANDS AND PEE DEE...

CITY           SKY/WX    TMP DP  RH WIND       PRES   REMARKS
GEORGETOWN     CLOUDY    55  55 100 W7        29.63R
KINGSTREE      RAIN      55  54  94 W3        29.63R
ORANGEBURG     CLOUDY    57  55  93 W6        29.66R
BARNWELL       CLOUDY    57  57 100 W5        29.69R
AIKEN          CLOUDY    54  52  94 W6        29.73R
MANNING        CLOUDY    55  54  94 NW14      29.64R
COLUMBIA       CLOUDY    58  54  86 NW12      29.65R
SUMTER         CLOUDY    56  55  94 NW7       29.62R
FLORENCE       CLOUDY    57  57 100 NW5       29.61R
MYRTLE BEACH   CLOUDY    61  59  94 W6        29.61R
N MYRTLE BEACH MOCLDY    61  61 100 W3        29.59R

$$

GAZ063-065-086>088-099>101-113>116-118-119-134>141-150-251200-
...SOUTHEAST GEORGIA...

CITY           SKY/WX    TMP DP  RH WIND       PRES   REMARKS
SAVANNAH ARPT  CLOUDY    60  54  80 W13       29.70R
HUNTER AAF     CLOUDY    60  58  91 W10       29.67R
FORT STEWART   CLOUDY    60  54  79 W10       29.69R
STATESBORO     CLOUDY    58  58 100 NW9       29.71R
SYLVANIA       CLOUDY   N/A N/A N/A NW10      29.71R
CLAXTON        CLOUDY    59  59 100 W9        29.71S

...CSRA...CENTRAL AND FAR SOUTHEAST GEORGIA...

CITY           SKY/WX    TMP DP  RH WIND       PRES   REMARKS
THOMSON        CLOUDY    55  54  95 N7        29.77S
AUGUSTA-BUSH   CLOUDY    60  55  83 W9        29.70R
AUGUSTA-DANIEL CLOUDY    58  53  84 W7        29.71R
SWAINSBORO     CLOUDY    57  55  94 NW8       29.74R
VIDALIA        CLOUDY    59  55  88 NW8       29.73R
EASTMAN        CLOUDY    59  59 100 CALM      29.77S
HAZLEHURST     CLOUDY    60  60 100 NW3       29.73R
ALMA           CLEAR     57  56  96 W5        29.74R
WAYCROSS       PTCLDY    58  58 100 W5        29.75R
JESUP          PTSUNNY   59  54  82 W3        29.73R
BAXLEY         CLOUDY    59  59 100 NW5       29.74R
BRUNSWICK      CLEAR     59  55  88 W7        29.73R
SAINT SIMONS   RAIN      60  55  83 W7        29.72R

$$

SCZ027-028-034-036>038-045-046-048>050-GAZ119-141-251200-
...LAKE AND SUPPLEMENTAL COASTAL OBSERVATIONS...

STATION/POSITION TIME  TEMP    WIND        PRES    WAVE   SWELL
                       AIR SEA DIR/SP/G            HT/PER HT/PER/DIR
                 (UTC) (F)     (DEG/KT/KT) (MB)    (FT/S) (FT/S/D)
WINYAH BAY       0945   60     290/  6     1002.0
LAKE MURRAY      1020   56     310/  3/  8 1003.7R
ACE BASIN NERRS  0945   59     280/  2     1004.0
FORT PULASKI     1042   61 74  270/ 11/ 16 1005.4R
SAPELO ISLAND    1000   61     270/  8     1006.0

$$

ANZ835-935-AMZ111-154-330-350-352-354-370-450-454-472-251200-
...C-MAN AND BUOY OBSERVATIONS...

STATION/POSITION TIME  TEMP    WIND        PRES    WAVE   SWELL
                       AIR SEA DIR/SP/G            HT/PER HT/PER/DIR
                 (UTC) (F)     (DEG/KT/KT) (MB)    (FT/S) (FT/S/D)
BUOY 41004       1050   66 72  260/ 16/ 19 1003.0R   7/ 9   5/120/ 9
BUOY 41008       1050   63 71  270/ 21/ 25 1005.2R   4/ 9   3/ 60/ 9
FOLLY BEACH CMAN 1000   61     300/  7/ 10 1003.8R
CAPERS NEARSHORE 1008   64 71  310/ 16/ 21 1002.7R
FRIPP NEARSHORE  1008   62 71  290/ 16/ 21 1003.8R


STATION/POSITION TIME  TEMP    WIND        PRES    WAVE   SWELL
                       AIR SEA DIR/SP/G            HT/PER HT/PER/DIR
                 (UTC) (F)     (DEG/KT/KT) (MB)    (FT/S) (FT/S/D)
5E ST. MARYS GA  1030      72                N/A     3/10   2/ 90/11
FRYING PAN BUOY  1050   69 75  250/ 16/ 19 1001.5R   8/ 9   7/120/ 9
BUOY 41025       1050   73 77  200/ 17/ 21 1001.8R  13/10  10/130/10
CAPE LOOKOUT NC  1000   65     200/  6/  6 1000.5R
BUOY 41002       1050   71 75  180/ 12/ 14 1004.8R   9/10   8/130/10
BUOY 41010       1050   72 78  270/ 19/ 25 1006.9R   8/ 7   3/ 80/11
ST AUGUSTINE FL  1100   57 72  270/  6/  8 1009.1R


$$




USA.gov is the U.S. government's official web portal to all federal, state and local government web resources and services.